CST,Max TemperatureF,Mean TemperatureF,Min TemperatureF,Max Dew PointF,MeanDew PointF,Min DewpointF,Max Humidity, Mean Humidity, Min Humidity, Max Sea Level PressureIn, Mean Sea Level PressureIn, Min Sea Level PressureIn, Max VisibilityMiles, Mean VisibilityMiles, Min VisibilityMiles, Max Wind SpeedMPH, Mean Wind SpeedMPH, Max Gust SpeedMPH,PrecipitationIn, CloudCover, Events, WindDirDegrees
2011-11-1,75,58,42,43,36,28,62,42,30,30.09,30.03,29.95,10,10,10,18,10,29,0.00,0,,178
2011-11-2,70,56,42,46,41,35,93,58,39,30.05,29.97,29.91,10,9,4,26,14,33,0.13,6,Rain,260
2011-11-3,46,44,37,41,39,34,93,86,71,30.22,29.97,29.80,10,8,3,32,22,47,1.29,8,Rain,7
2011-11-4,55,42,30,38,33,28,92,72,40,30.32,30.25,30.19,10,10,10,10,7,,0.00,0,,69
2011-11-5,57,46,36,45,41,34,93,79,62,30.17,30.08,29.95,10,8,2,17,9,25,0.00,3,,156
2011-11-6,63,57,51,53,48,43,77,71,63,30.08,29.99,29.92,10,10,9,20,14,29,0.00,5,,181
2011-11-7,55,54,53,54,52,48,100,93,75,30.18,30.11,29.99,10,5,1,17,7,,0.49,8,Rain,78
2011-11-8,57,52,46,56,50,46,100,96,93,29.98,29.90,29.75,8,2,0,17,8,26,0.64,8,Fog-Rain-Thunderstorm,40
2011-11-9,53,45,37,52,40,26,100,83,48,30.17,29.85,29.62,10,6,1,30,11,43,0.51,6,Rain,302
2011-11-10,43,36,27,25,24,22,81,61,47,30.18,30.16,30.14,10,10,10,23,11,31,0.00,1,,275
2011-11-11,60,44,27,36,28,21,81,57,39,30.11,29.90,29.77,10,10,10,18,9,24,0.00,0,,197
2011-11-12,62,52,42,47,35,30,74,52,31,29.81,29.70,29.54,10,10,10,17,11,26,0.00,0,,188
2011-11-13,72,62,48,51,41,31,77,52,23,29.65,29.51,29.40,10,10,10,26,16,37,0.00,0,,219
2011-11-14,63,54,46,45,38,32,74,56,41,29.76,29.63,29.53,10,10,10,14,6,,0.02,1,,234
2011-11-15,64,52,41,43,36,26,76,57,35,29.96,29.78,29.70,10,10,10,16,6,18,0.00,0,,222
2011-11-16,44,37,30,25,17,11,64,47,26,30.27,30.16,29.98,10,10,10,20,11,24,0.00,1,,339
2011-11-17,46,36,25,15,12,8,61,42,22,30.35,30.27,30.18,10,10,10,15,8,22,0.00,0,,239
2011-11-18,57,46,36,21,17,14,46,33,20,30.17,29.98,29.84,10,10,10,31,15,41,0.00,0,,184
2011-11-19,66,55,39,52,39,24,79,57,42,30.06,29.80,29.65,10,10,10,21,14,29,0.00,6,,195
2011-11-20,41,37,33,34,30,27,82,74,67,30.27,30.20,30.07,10,10,9,18,12,20,0.00,7,Rain,10
2011-11-21,44,42,39,43,38,34,100,83,76,30.25,30.17,30.08,10,6,0,10,6,,0.00,8,Fog,61
2011-11-22,44,42,41,43,40,39,97,91,87,30.13,29.99,29.89,6,3,0,16,9,,0.43,8,Fog-Rain,356
2011-11-23,45,41,37,40,39,36,100,88,80,30.29,30.23,30.14,8,4,0,14,6,,0.00,8,Fog,246
2011-11-24,60,52,43,45,42,39,93,76,52,30.25,30.17,30.06,10,8,4,18,12,22,0.00,3,,183
2011-11-25,62,52,43,46,41,37,82,64,47,30.05,29.92,29.83,10,10,10,21,14,30,0.00,0,,193
2011-11-26,57,48,37,55,48,34,100,90,66,29.97,29.84,29.77,10,5,1,24,12,32,0.76,8,Rain,217
2011-11-27,37,36,34,34,31,27,93,82,72,30.18,30.09,29.97,10,9,3,22,16,32,0.00,8,Rain,329
2011-11-28,34,31,28,27,26,25,86,78,72,30.18,30.08,29.95,10,10,9,18,11,,0.00,7,,15
2011-11-29,42,34,27,28,24,19,85,70,51,30.15,30.06,29.95,10,10,9,22,16,28,0.00,1,,341
2011-11-30,43,32,21,21,18,14,78,57,33,30.19,30.14,30.09,10,10,10,8,5,,0.00,0,,216